Location: Tambov
(52.7163°N, 41.4075°E)
Time: 13:27:37
(UTC+03:00)

ISS - Visible Passes

Search period start: 04 March 2021 00:00
Search period end: 14 March 2021 00:00
Orbit: 417 x 422 km, 51.6° (Epoch: 04 March)

Date Brightness Start Highest point End Pass type
(mag) Time Alt. Az. Time Alt. Az. Time Alt. Az.
04 Mar -3.4 04:36:49 60° ESE 04:36:49 60° ESE 04:39:43 10° E visible
04 Mar -3.4 06:09:47 10° W 06:13:03 55° SSW 06:16:22 10° ESE visible
05 Mar -1.1 03:51:08 19° E 03:51:08 19° E 03:52:14 10° E visible
05 Mar -3.7 05:24:06 29° W 05:25:37 65° S 05:28:57 10° ESE visible
06 Mar -3.6 04:38:27 66° SE 04:38:27 66° SE 04:41:31 10° ESE visible
06 Mar -2.8 06:11:39 10° W 06:14:44 34° SSW 06:17:48 10° SE visible
07 Mar -1.3 03:52:49 21° E 03:52:49 21° E 03:54:02 10° E visible
07 Mar -3.3 05:25:47 25° WSW 05:27:20 44° SSW 05:30:33 10° SE visible
08 Mar -3.4 04:40:12 52° S 04:40:12 52° S 04:43:12 10° ESE visible
09 Mar -1.3 03:54:42 19° ESE 03:54:42 19° ESE 03:55:47 10° ESE visible
09 Mar -2.5 05:27:40 20° WSW 05:28:55 25° SSW 05:31:45 10° SSE visible
10 Mar -2.6 04:42:15 30° S 04:42:15 30° S 04:44:37 10° SE visible
11 Mar -1.0 03:56:57 13° SE 03:56:57 13° SE 03:57:20 10° SE visible
11 Mar -1.7 05:29:56 13° SW 05:30:19 13° SW 05:32:01 10° S visible
12 Mar -1.4 04:44:47 13° S 04:44:47 13° S 04:45:26 10° SSE visible
